User: anonymous   Login
Location: Unspecified
(0.0000°N, 0.0000°E)
Time: 00:46:45
(UTC+00:00)
Language:

XW-2D - Orbit

View from above orbital plane
View from above orbital plane
View from above satellite
View from above satellite

Ground track
Ground track

The orbit data is extracted from the following two-line orbital elements,

1 40907U 15049J   21340.54723597  .00002422  00000-0  12348-3 0  9992
2 40907  97.4898 340.7139 0012391 311.6541 144.6144 15.17667987343697
Epoch (UTC): 06 December 2021 13:08:01
Eccentricity: 0.0012391
inclination: 97.4898°
perigee height: 504 km
apogee height: 521 km
right ascension of ascending node: 340.7139°
argument of perigee: 311.6541°
revolutions per day: 15.17667987
mean anomaly at epoch: 144.6144°
orbit number at epoch: 34369

The dashed part of the orbit path shows where the satellite is in the earth's shadow,  

DLR